User: anonymous   Login
Location: Unspecified
(0.0000°N, 0.0000°E)
Time: 06:17:33
(UTC+00:00)
Language:

METEOR M2 - Orbit

View from above orbital plane
View from above orbital plane
View from above satellite
View from above satellite

Ground track
Ground track

The orbit data is extracted from the following two-line orbital elements,

1 40069U 14037A   17119.84740746 -.00000030 +00000-0 +61892-5 0  9998
2 40069 098.6594 175.5643 0005760 007.3564 352.7695 14.20641414145695
Epoch (UTC): 29 April 2017 20:20:16
Eccentricity: 0.0005760
inclination: 98.6594°
perigee height: 819 km
apogee height: 827 km
right ascension of ascending node: 175.5643°
argument of perigee: 7.3564°
revolutions per day: 14.20641414
mean anomaly at epoch: 352.7695°
orbit number at epoch: 14569

The dashed part of the orbit path shows where the satellite is in the earth's shadow,  

DLR